Weather History for Lihue, HI

Change the Weather History Date:

Thursday, May 3, 2012

  Actual Average Record
Temperature  
Mean Temperature 75 °F 75 °F  
Max Temperature 80 °F 80 °F 86 °F (1978)
Min Temperature 70 °F 69 °F 62 °F (1996)
Degree Days  
Heating Degree Days 0 0  
Month to date heating degree days 0 0  
Since 1 July heating degree days 0 0  
Cooling Degree Days 10 10  
Month to date cooling degree days 33 30  
Year to date cooling degree days 1087 934  
Growing Degree Days 24 (Base 50)    
Moisture  
Dew Point 65 °F    
Average Humidity 79    
Maximum Humidity 90    
Minimum Humidity 67    
Precipitation  
Precipitation 0.12 in 0.08 in 1.40 in (2010)
Month to date precipitation 0.16 0.24  
Year to date precipitation 31.91 14.01  
Snow  
Snow 0.00 in - - ()
Month to date snowfall 0.0  
Since 1 July snowfall 0.0  
Snow Depth 0.00 in    
Sea Level Pressure  
Sea Level Pressure 30.11 in    
Wind  
Wind Speed 17 mph (ENE)    
Max Wind Speed 24 mph    
Max Gust Speed 30 mph    
Visibility 10 miles    
Events Rain    
T = Trace of Precipitation, MM = Missing Value Source: NWS Daily Summary

Daily Weather History Graph

Daily Weather History Graph

Search for Another Location

Airport:

Trip Planner

Search our weather history database for the weather conditions in past years. The results will help you decide how hot, cold, wet, or windy it might be!

Date:

Astronomy

May. 03, 2012 Rise Set
Actual Time 6:03 AM HST 7:04 PM HST
Civil Twilight 5:40 AM HST 7:28 PM HST
Nautical Twilight 5:12 AM HST 7:56 PM HST
Astronomical Twilight 4:44 AM HST 8:24 PM HST
Moon 4:54 PM HST (5/3) 3:57 AM HST (5/3)
Length of Visible Light 13h 47m
Length of Day
13h 00m
Waxing Gibbous, 92% of the Moon is Illuminated
May 3
Waxing Gibbous
May 5
Full
May 12
Last Quarter
May 20
New
May 28
First Quarter

Hourly Weather History & Observations

Time (HST) Temp. Dew Point Humidity Pressure Visibility Wind Dir Wind Speed Gust Speed Precip Events Conditions
12:53 AM 73.9 °F 64.0 °F 71% 30.11 in 10.0 mi ENE 18.4 mph - N/A   Overcast
1:53 AM 72.0 °F 66.0 °F 81% 30.09 in 10.0 mi NE 17.3 mph - 0.01 in   Overcast
2:53 AM 70.0 °F 66.0 °F 87% 30.08 in 6.0 mi NNE 15.0 mph 20.7 mph 0.02 in Rain Light Rain
3:14 AM 73.4 °F 66.2 °F 78% 30.08 in 10.0 mi ENE 16.1 mph - 0.00 in   Mostly Cloudy
3:38 AM 73.4 °F 66.2 °F 78% 30.08 in 10.0 mi ENE 19.6 mph - 0.00 in   Overcast
3:53 AM 73.0 °F 66.0 °F 79% 30.07 in 10.0 mi ENE 19.6 mph - 0.00 in   Mostly Cloudy
4:53 AM 73.0 °F 64.0 °F 73% 30.08 in 10.0 mi ENE 21.9 mph - N/A   Partly Cloudy
5:53 AM 73.0 °F 64.9 °F 76% 30.09 in 10.0 mi ENE 17.3 mph - N/A   Mostly Cloudy
6:53 AM 73.0 °F 64.9 °F 76% 30.10 in 10.0 mi ENE 17.3 mph - 0.00 in   Mostly Cloudy
7:22 AM 71.6 °F 66.2 °F 83% 30.12 in 10.0 mi ENE 17.3 mph - 0.00 in   Overcast
7:53 AM 73.9 °F 66.9 °F 79% 30.12 in 10.0 mi ENE 16.1 mph - 0.00 in   Overcast
8:53 AM 75.0 °F 64.9 °F 71% 30.13 in 10.0 mi ENE 15.0 mph - N/A   Scattered Clouds
9:53 AM 77.0 °F 66.0 °F 69% 30.14 in 10.0 mi ENE 19.6 mph - N/A   Scattered Clouds
10:53 AM 73.9 °F 66.0 °F 76% 30.14 in 6.0 mi NE 11.5 mph - 0.02 in   Haze
11:53 AM 78.1 °F 66.9 °F 68% 30.13 in 10.0 mi NE 15.0 mph - 0.01 in   Mostly Cloudy
12:53 PM 79.0 °F 66.0 °F 64% 30.12 in 10.0 mi ENE 16.1 mph - N/A   Scattered Clouds
1:00 PM 78.8 °F 66.2 °F 65% 30.12 in 10.0 mi ENE 16.1 mph - N/A   Mostly Cloudy
1:16 PM 78.8 °F 66.2 °F 65% 30.12 in 10.0 mi ENE 16.1 mph - N/A   Mostly Cloudy
1:53 PM 75.0 °F 69.1 °F 82% 30.11 in 10.0 mi ENE 18.4 mph - 0.02 in   Scattered Clouds
2:53 PM 75.0 °F 68.0 °F 79% 30.09 in 10.0 mi ENE 17.3 mph - 0.04 in   Mostly Cloudy
3:53 PM 78.1 °F 66.9 °F 68% 30.08 in 10.0 mi ENE 18.4 mph - N/A   Mostly Cloudy
4:53 PM 75.9 °F 64.0 °F 67% 30.08 in 10.0 mi ENE 16.1 mph - N/A   Scattered Clouds
5:53 PM 73.9 °F 66.0 °F 76% 30.09 in 10.0 mi ENE 15.0 mph - 0.00 in   Overcast
6:53 PM 73.9 °F 64.0 °F 71% 30.10 in 10.0 mi ENE 18.4 mph - N/A   Scattered Clouds
7:53 PM 73.9 °F 64.0 °F 71% 30.12 in 10.0 mi ENE 17.3 mph - N/A   Partly Cloudy
8:51 PM 73.4 °F 62.6 °F 69% 30.14 in 10.0 mi ENE 13.8 mph - N/A   Mostly Cloudy
8:53 PM 73.9 °F 64.0 °F 71% 30.14 in 10.0 mi NE 18.4 mph - N/A   Mostly Cloudy
9:29 PM 73.4 °F 62.6 °F 69% 30.15 in 10.0 mi ENE 17.3 mph - N/A   Scattered Clouds
9:53 PM 73.9 °F 63.0 °F 68% 30.15 in 10.0 mi ENE 13.8 mph - N/A   Partly Cloudy
10:53 PM 73.9 °F 63.0 °F 68% 30.15 in 10.0 mi ENE 16.1 mph - N/A   Scattered Clouds
11:53 PM 73.0 °F 64.0 °F 73% 30.14 in 10.0 mi ENE 16.1 mph - N/A   Scattered Clouds